Location: Unspecified
(0.0000°N, 0.0000°E)
Time: 18:46:31
(UTC+00:00)

ISS - Pass Details

Date: 27 May 2017
Orbit: 402 x 409 km, 51.6° (Epoch: 24 May)

Event Time Altitude Azimuth Distance (km) Brightness Sun altitude
Rises 05:30:00 0° 311° (NW) 2,298 -0.3 -6.3°
Reaches altitude 10° 05:32:10 10° 302° (WNW) 1,442 -1.4 -5.8°
Maximum altitude 05:35:10 34° 234° (SW) 674 -3.2 -5.1°
Drops below altitude 10° 05:38:09 10° 167° (SSE) 1,447 -1.1 -4.4°
Sets 05:40:20 0° 157° (SSE) 2,307 0.0 -3.9°
